| time (UTC) | temp F | wind direction | speed knots | gust knots | rain 1hr in | rain 24hr in | rain mn in | humidity % | barometer mb |
| 20260503070209 | 43 | 134 | 3.5 | 11.3 | 0.00 | 0.00 | 0.00 | 57 | 966.6 |
| 20260503054939 | 42 | 121 | 3.5 | 13.0 | 0.00 | 0.00 | 0.00 | 59 | 966.4 |
| 20260503054439 | 43 | 105 | 2.6 | 9.6 | 0.00 | 0.00 | 0.00 | 60 | 966.4 |
| 20260503053939 | 43 | 183 | 2.6 | 13.0 | 0.00 | 0.00 | 0.00 | 60 | 966.3 |
| 20260503053439 | 42 | 103 | 3.5 | 13.0 | 0.00 | 0.00 | 0.00 | 61 | 966.4 |
| 20260503052939 | 42 | 87 | 2.6 | 11.3 | 0.00 | 0.00 | 0.00 | 61 | 966.3 |
| 20260503052439 | 43 | 155 | 2.6 | 11.3 | 0.00 | 0.00 | 0.00 | 60 | 966.4 |
| 20260503051939 | 43 | 21 | 2.6 | 8.7 | 0.00 | 0.00 | 0.00 | 59 | 966.5 |
| 20260503051409 | 43 | 71 | 2.6 | 8.7 | 0.00 | 0.00 | 0.00 | 61 | 966.5 |
| 20260503050909 | 43 | 47 | 2.6 | 11.3 | 0.00 | 0.00 | 0.00 | 60 | 966.5 |
| 20260503050409 | 42 | 122 | 1.7 | 11.3 | 0.00 | 0.00 | 0.00 | 61 | 966.4 |
| 20260503045909 | 42 | 128 | 2.6 | 11.3 | 0.00 | 0.00 | 0.00 | 61 | 966.3 |
| 20260503045409 | 41 | 96 | 2.6 | 11.3 | 0.00 | 0.00 | 0.00 | 64 | 966.3 |
| 20260503044839 | 40 | 201 | 2.6 | 11.3 | 0.00 | 0.00 | 0.00 | 65 | 966.2 |
| 20260503044339 | 40 | 171 | 2.6 | 8.7 | 0.00 | 0.00 | 0.00 | 65 | 966.2 |
| 20260503043839 | 39 | 182 | 2.6 | 7.8 | 0.00 | 0.00 | 0.00 | 67 | 966.1 |
| 20260503043339 | 39 | 114 | 3.5 | 11.3 | 0.00 | 0.00 | 0.00 | 66 | 966.1 |
| 20260503042839 | 38 | 58 | 3.5 | 11.3 | 0.00 | 0.00 | 0.00 | 68 | 966.2 |
| 20260503042339 | 39 | 159 | 3.5 | 9.6 | 0.00 | 0.00 | 0.00 | 67 | 966.1 |
| 20260503041839 | 38 | 123 | 2.6 | 9.6 | 0.00 | 0.00 | 0.00 | 67 | 966.2 |
| 20260503041309 | 38 | 220 | 2.6 | 8.7 | 0.00 | 0.00 | 0.00 | 67 | 966.1 |
| 20260503040809 | 38 | 50 | 2.6 | 8.7 | 0.00 | 0.00 | 0.00 | 68 | 966.1 |
| 20260503040309 | 37 | 170 | 2.6 | 9.6 | 0.00 | 0.00 | 0.00 | 70 | 966.0 |
| 20260503035809 | 37 | 161 | 3.5 | 9.6 | 0.00 | 0.00 | 0.00 | 72 | 966.2 |
| 20260503035239 | 36 | 178 | 4.3 | 9.6 | 0.00 | 0.00 | 0.00 | 74 | 966.1 |
| 20260503034738 | 35 | 188 | 4.3 | 7.8 | 0.00 | 0.00 | 0.00 | 73 | 966.3 |
| 20260503034238 | 35 | 192 | 3.5 | 6.1 | 0.00 | 0.00 | 0.00 | 73 | 966.3 |
| 20260503033738 | 35 | 193 | 2.6 | 5.2 | 0.00 | 0.00 | 0.00 | 72 | 966.2 |
| 20260503033238 | 35 | 207 | 1.7 | 5.2 | 0.00 | 0.00 | 0.00 | 73 | 966.2 |
| 20260503032738 | 35 | 204 | 1.7 | 6.1 | 0.00 | 0.00 | 0.00 | 72 | 966.2 |
| 20260503032238 | 35 | 60 | 1.7 | 7.8 | 0.00 | 0.00 | 0.00 | 73 | 966.4 |
| 20260503031738 | 34 | 79 | 3.5 | 7.8 | 0.00 | 0.00 | 0.00 | 76 | 966.2 |
| 20260503031209 | 33 | 191 | 3.5 | 7.0 | 0.00 | 0.00 | 0.00 | 78 | 966.2 |
| 20260503030708 | 33 | 160 | 3.5 | 7.0 | 0.00 | 0.00 | 0.00 | 79 | 966.1 |
| 20260503030208 | 32 | 198 | 2.6 | 5.2 | 0.00 | 0.00 | 0.00 | 81 | 966.2 |
| 20260503025638 | 32 | 186 | 1.7 | 4.3 | 0.00 | 0.00 | 0.00 | 81 | 966.2 |
| 20260503025138 | 31 | 254 | 2.6 | 6.1 | 0.00 | 0.00 | 0.00 | 82 | 966.3 |
| 20260503024638 | 31 | 216 | 3.5 | 7.8 | 0.00 | 0.00 | 0.00 | 82 | 966.2 |
| 20260503024138 | 31 | 190 | 3.5 | 7.8 | 0.00 | 0.00 | 0.00 | 83 | 966.2 |
| 20260503023638 | 31 | 174 | 2.6 | 7.8 | 0.00 | 0.00 | 0.00 | 83 | 966.0 |
| 20260503023138 | 31 | 259 | 3.5 | 7.0 | 0.00 | 0.00 | 0.00 | 83 | 966.1 |
| 20260503022638 | 31 | 172 | 3.5 | 8.7 | 0.00 | 0.00 | 0.00 | 83 | 966.0 |
| 20260503022138 | 31 | 165 | 2.6 | 8.7 | 0.00 | 0.00 | 0.00 | 83 | 966.0 |
| 20260503021638 | 31 | 192 | 2.6 | 9.6 | 0.00 | 0.00 | 0.00 | 84 | 966.0 |
| 20260503021108 | 31 | 87 | 2.6 | 9.6 | 0.00 | 0.00 | 0.00 | 84 | 966.0 |
| 20260503020608 | 31 | 202 | 2.6 | 9.6 | 0.00 | 0.00 | 0.00 | 83 | 966.0 |
| 20260503020038 | 31 | 163 | 2.6 | 9.6 | 0.00 | 0.00 | 0.00 | 83 | 966.0 |
| 20260503015538 | 30 | 136 | 2.6 | 9.6 | 0.00 | 0.00 | 0.00 | 83 | 966.0 |
| 20260503015038 | 31 | 88 | 3.5 | 9.6 | 0.00 | 0.00 | 0.00 | 82 | 966.1 |
| 20260503014538 | 31 | 103 | 3.5 | 8.7 | 0.00 | 0.00 | 0.00 | 82 | 966.0 |
| 20260503014038 | 31 | 176 | 4.3 | 7.8 | 0.00 | 0.00 | 0.00 | 82 | 966.1 |
| 20260503013538 | 31 | 185 | 4.3 | 7.8 | 0.00 | 0.00 | 0.00 | 82 | 966.1 |
| 20260503013038 | 31 | 193 | 3.5 | 7.8 | 0.00 | 0.00 | 0.00 | 83 | 966.0 |
| 20260503012538 | 31 | 196 | 5.2 | 11.3 | 0.00 | 0.00 | 0.00 | 83 | 966.0 |
| 20260503012038 | 31 | 186 | 6.1 | 13.9 | 0.00 | 0.00 | 0.00 | 83 | 966.0 |
| 20260503011508 | 31 | 185 | 6.1 | 14.8 | 0.00 | 0.00 | 0.00 | 84 | 966.0 |
| 20260503010938 | 31 | 176 | 5.2 | 14.8 | 0.00 | 0.00 | 0.00 | 84 | 966.0 |
| 20260503010438 | 31 | 182 | 4.3 | 12.2 | 0.00 | 0.00 | 0.00 | 85 | 966.0 |
| 20260503005908 | 31 | 150 | 3.5 | 9.6 | 0.00 | 0.00 | 0.00 | 85 | 966.0 |
| 20260503005408 | 31 | 60 | 2.6 | 7.8 | 0.00 | 0.00 | 0.00 | 85 | 966.0 |
| 20260503004908 | 31 | 135 | 2.6 | 11.3 | 0.00 | 0.00 | 0.00 | 85 | 966.0 |
| 20260503004408 | 31 | 136 | 2.6 | 11.3 | 0.00 | 0.00 | 0.00 | 85 | 966.0 |
| 20260503003838 | 31 | 152 | 2.6 | 7.8 | 0.00 | 0.00 | 0.00 | 85 | 966.0 |
| 20260503003338 | 31 | 109 | 4.3 | 11.3 | 0.00 | 0.00 | 0.00 | 85 | 966.0 |
| 20260503002808 | 31 | 2 | 4.3 | 11.3 | 0.00 | 0.00 | 0.00 | 84 | 966.0 |
| 20260503002308 | 31 | 183 | 4.3 | 11.3 | 0.00 | 0.00 | 0.00 | 84 | 966.0 |
| 20260503001808 | 31 | 179 | 4.3 | 12.2 | 0.00 | 0.00 | 0.00 | 84 | 966.0 |
| 20260503001308 | 31 | 189 | 5.2 | 12.2 | 0.00 | 0.00 | 0.00 | 84 | 966.0 |
| 20260503000808 | 31 | 182 | 5.2 | 13.0 | 0.00 | 0.00 | 0.00 | 84 | 966.0 |
| 20260503000238 | 31 | 168 | 4.3 | 13.0 | 0.00 | 0.00 | 0.00 | 84 | 966.0 |
| 20260502235738 | 31 | 161 | 3.5 | 13.0 | 0.00 | 0.00 | 0.00 | 84 | 966.0 |
| 20260502235238 | 31 | 101 | 4.3 | 11.3 | 0.00 | 0.00 | 0.00 | 83 | 966.0 |
| 20260502234708 | 31 | 94 | 4.3 | 11.3 | 0.00 | 0.00 | 0.00 | 82 | 965.6 |
| 20260502234208 | 32 | 208 | 5.2 | 11.3 | 0.00 | 0.00 | 0.00 | 82 | 966.0 |
| 20260502233638 | 32 | 148 | 5.2 | 13.9 | 0.00 | 0.00 | 0.00 | 82 | 965.6 |
| 20260502233138 | 32 | 183 | 5.2 | 13.9 | 0.00 | 0.00 | 0.00 | 83 | 966.0 |
| 20260502232637 | 32 | 164 | 3.5 | 13.0 | 0.00 | 0.00 | 0.00 | 84 | 965.6 |
| 20260502232137 | 31 | 95 | 3.5 | 13.0 | 0.00 | 0.00 | 0.00 | 84 | 966.0 |
| 20260502231637 | 31 | 138 | 3.5 | 11.3 | 0.00 | 0.00 | 0.00 | 85 | 966.0 |
| 20260502231107 | 31 | 53 | 3.5 | 11.3 | 0.00 | 0.00 | 0.00 | 86 | 966.0 |
| 20260502230538 | 32 | 147 | 4.3 | 12.2 | 0.00 | 0.00 | 0.00 | 86 | 965.6 |
| 20260502230037 | 32 | 89 | 4.3 | 12.2 | 0.00 | 0.00 | 0.00 | 86 | 966.0 |
| 20260502225537 | 32 | 123 | 4.3 | 12.2 | 0.00 | 0.00 | 0.00 | 85 | 966.0 |
| 20260502225007 | 32 | 177 | 4.3 | 12.2 | 0.00 | 0.00 | 0.00 | 85 | 966.0 |
| 20260502224507 | 32 | 157 | 3.5 | 12.2 | 0.00 | 0.00 | 0.00 | 84 | 966.0 |
| 20260502224007 | 32 | 161 | 3.5 | 11.3 | 0.00 | 0.00 | 0.00 | 84 | 966.0 |
| 20260502223437 | 32 | 95 | 3.5 | 12.2 | 0.00 | 0.00 | 0.00 | 84 | 966.0 |
| 20260502222937 | 32 | 216 | 3.5 | 12.2 | 0.00 | 0.00 | 0.00 | 84 | 966.0 |
| 20260502222437 | 32 | 96 | 3.5 | 10.4 | 0.00 | 0.00 | 0.00 | 84 | 966.0 |
| 20260502221907 | 33 | 66 | 2.6 | 10.4 | 0.00 | 0.00 | 0.00 | 84 | 965.6 |
| 20260502221337 | 33 | 75 | 2.6 | 12.2 | 0.00 | 0.00 | 0.00 | 83 | 966.0 |
| 20260502220837 | 33 | 122 | 2.6 | 12.2 | 0.00 | 0.00 | 0.00 | 83 | 966.0 |
| 20260502220337 | 33 | 116 | 1.7 | 7.8 | 0.00 | 0.00 | 0.00 | 83 | 966.0 |
| 20260502215837 | 33 | 153 | 1.7 | 7.8 | 0.00 | 0.00 | 0.00 | 82 | 966.0 |
| 20260502215337 | 33 | 115 | 2.6 | 7.8 | 0.00 | 0.00 | 0.00 | 82 | 966.0 |
| 20260502214837 | 34 | 123 | 4.3 | 12.2 | 0.00 | 0.00 | 0.00 | 81 | 966.0 |
| 20260502214337 | 34 | 192 | 4.3 | 13.9 | 0.00 | 0.00 | 0.00 | 81 | 966.0 |
| 20260502213837 | 34 | 81 | 5.2 | 13.9 | 0.00 | 0.00 | 0.00 | 81 | 965.6 |
| 20260502213307 | 34 | 104 | 5.2 | 13.9 | 0.00 | 0.00 | 0.00 | 80 | 966.0 |
| 20260502212807 | 34 | 98 | 4.3 | 13.9 | 0.00 | 0.00 | 0.00 | 79 | 966.0 |
| 20260502212237 | 34 | 173 | 3.5 | 11.3 | 0.00 | 0.00 | 0.00 | 80 | 966.0 |
| 20260502211737 | 34 | 127 | 1.7 | 7.0 | 0.00 | 0.00 | 0.00 | 82 | 966.0 |
| 20260502211237 | 35 | 160 | 2.6 | 9.6 | 0.00 | 0.00 | 0.00 | 82 | 966.0 |
| 20260502210707 | 35 | 93 | 2.6 | 9.6 | 0.00 | 0.00 | 0.00 | 81 | 966.0 |
| 20260502210207 | 35 | 82 | 2.6 | 10.4 | 0.00 | 0.00 | 0.00 | 80 | 966.0 |
| 20260502205707 | 36 | 121 | 2.6 | 10.4 | 0.00 | 0.00 | 0.00 | 81 | 966.0 |
| 20260502205207 | 36 | 185 | 3.5 | 8.7 | 0.00 | 0.00 | 0.00 | 81 | 966.2 |
| 20260502204707 | 36 | 42 | 4.3 | 13.9 | 0.00 | 0.00 | 0.00 | 81 | 966.1 |
| 20260502204137 | 36 | 176 | 5.2 | 13.9 | 0.00 | 0.00 | 0.00 | 80 | 966.1 |
| 20260502203637 | 36 | 191 | 5.2 | 13.9 | 0.00 | 0.00 | 0.00 | 80 | 966.0 |
| 20260502203137 | 36 | 189 | 5.2 | 16.5 | 0.00 | 0.00 | 0.00 | 79 | 966.0 |
| 20260502202637 | 37 | 202 | 5.2 | 16.5 | 0.00 | 0.00 | 0.00 | 79 | 966.0 |
| 20260502202137 | 37 | 98 | 4.3 | 13.9 | 0.00 | 0.00 | 0.00 | 78 | 966.0 |
| 20260502201637 | 37 | 171 | 4.3 | 12.2 | 0.00 | 0.00 | 0.00 | 78 | 966.0 |
| 20260502201137 | 37 | 118 | 4.3 | 12.2 | 0.00 | 0.00 | 0.00 | 77 | 966.0 |
| 20260502200636 | 37 | 125 | 4.3 | 13.0 | 0.00 | 0.00 | 0.00 | 77 | 966.0 |
| 20260502200136 | 37 | 126 | 4.3 | 13.0 | 0.00 | 0.00 | 0.00 | 76 | 966.0 |
| 20260502195636 | 37 | 121 | 4.3 | 12.2 | 0.00 | 0.00 | 0.00 | 75 | 966.0 |
| 20260502195136 | 37 | 187 | 4.3 | 13.0 | 0.00 | 0.00 | 0.00 | 75 | 966.0 |
| 20260502194636 | 38 | 85 | 5.2 | 13.0 | 0.00 | 0.00 | 0.00 | 73 | 966.0 |
| 20260502194136 | 38 | 200 | 5.2 | 13.0 | 0.00 | 0.00 | 0.00 | 73 | 966.0 |
| 20260502193636 | 38 | 197 | 6.1 | 14.8 | 0.00 | 0.00 | 0.00 | 73 | 966.0 |
| 20260502193136 | 38 | 251 | 6.1 | 14.8 | 0.00 | 0.00 | 0.00 | 73 | 966.0 |
| 20260502192607 | 38 | 193 | 5.2 | 13.0 | 0.00 | 0.00 | 0.00 | 73 | 965.6 |
| 20260502192106 | 38 | 156 | 4.3 | 13.0 | 0.00 | 0.00 | 0.00 | 72 | 965.6 |
| 20260502191606 | 38 | 167 | 3.5 | 8.7 | 0.00 | 0.00 | 0.00 | 73 | 965.6 |
| 20260502191106 | 38 | 191 | 3.5 | 10.4 | 0.00 | 0.00 | 0.00 | 74 | 965.6 |
| 20260502190606 | 38 | 155 | 4.3 | 10.4 | 0.00 | 0.00 | 0.00 | 74 | 965.5 |
| 20260502190106 | 38 | 163 | 3.5 | 9.6 | 0.00 | 0.00 | 0.00 | 74 | 965.5 |
| 20260502185606 | 38 | 158 | 3.5 | 9.6 | 0.00 | 0.00 | 0.00 | 73 | 965.5 |
| 20260502185106 | 38 | 197 | 4.3 | 9.6 | 0.00 | 0.00 | 0.00 | 74 | 965.6 |
| 20260502184606 | 38 | 152 | 4.3 | 12.2 | 0.00 | 0.00 | 0.00 | 75 | 965.4 |
| 20260502184036 | 38 | 214 | 5.2 | 12.2 | 0.00 | 0.00 | 0.00 | 76 | 965.6 |
| 20260502183536 | 38 | 123 | 5.2 | 12.2 | 0.00 | 0.00 | 0.00 | 77 | 965.4 |
| 20260502183006 | 38 | 168 | 4.3 | 10.4 | 0.00 | 0.00 | 0.00 | 78 | 965.4 |
| 20260502182436 | 38 | 149 | 5.2 | 14.8 | 0.00 | 0.00 | 0.00 | 78 | 965.4 |
| 20260502181936 | 38 | 165 | 5.2 | 14.8 | 0.00 | 0.00 | 0.00 | 78 | 965.4 |
| 20260502181406 | 38 | 195 | 5.2 | 14.8 | 0.00 | 0.00 | 0.00 | 78 | 965.3 |
| 20260502180906 | 38 | 145 | 5.2 | 13.9 | 0.00 | 0.00 | 0.00 | 77 | 965.3 |
| 20260502180406 | 38 | 168 | 5.2 | 15.6 | 0.00 | 0.00 | 0.00 | 79 | 965.6 |
| 20260502170336 | 39 | 178 | 6.1 | 13.0 | 0.00 | 0.00 | 0.00 | 77 | 965.4 |
| 20260502164306 | 40 | 197 | 6.1 | 14.8 | 0.00 | 0.00 | 0.00 | 78 | 965.2 |
| 20260502163806 | 40 | 171 | 6.1 | 16.5 | 0.00 | 0.00 | 0.00 | 80 | 965.1 |
| 20260502163236 | 40 | 186 | 7.0 | 16.5 | 0.00 | 0.00 | 0.00 | 80 | 965.2 |
| 20260502162736 | 40 | 186 | 7.8 | 18.2 | 0.00 | 0.00 | 0.00 | 81 | 965.2 |
| 20260502162235 | 40 | 188 | 7.0 | 18.2 | 0.00 | 0.00 | 0.00 | 82 | 965.1 |
| 20260502161705 | 41 | 165 | 7.0 | 18.2 | 0.00 | 0.00 | 0.00 | 83 | 965.1 |
| 20260502161205 | 41 | 172 | 7.0 | 15.6 | 0.00 | 0.00 | 0.00 | 84 | 965.0 |
| 20260502160635 | 41 | 207 | 7.0 | 15.6 | 0.00 | 0.00 | 0.00 | 86 | 965.1 |
| 20260502160106 | 41 | 198 | 6.1 | 14.8 | 0.00 | 0.00 | 0.00 | 86 | 965.0 |
| 20260502152035 | 42 | 181 | 4.3 | 12.2 | 0.00 | 0.00 | 0.00 | 89 | 965.1 |
| 20260502151535 | 42 | 202 | 5.2 | 14.8 | 0.00 | 0.00 | 0.00 | 89 | 965.1 |
| 20260502151035 | 41 | 189 | 5.2 | 14.8 | 0.00 | 0.00 | 0.00 | 89 | 965.4 |
| 20260502150505 | 41 | 173 | 5.2 | 13.0 | 0.00 | 0.00 | 0.00 | 90 | 965.4 |
| 20260502130434 | 45 | 226 | 5.2 | 10.4 | 0.00 | 0.00 | 0.00 | 91 | 964.9 |
| 20260502123404 | 48 | 18 | 2.6 | 11.3 | 0.00 | 0.00 | 0.00 | 75 | 964.9 |
| 20260502122904 | 48 | 99 | 2.6 | 11.3 | 0.00 | 0.00 | 0.00 | 75 | 964.9 |
| 20260502122404 | 48 | 113 | 1.7 | 8.7 | 0.00 | 0.00 | 0.00 | 74 | 964.9 |
| 20260502121904 | 48 | 119 | 0.9 | 7.0 | 0.00 | 0.00 | 0.00 | 72 | 965.0 |
| 20260502121404 | 49 | 35 | 0.9 | 5.2 | 0.00 | 0.00 | 0.00 | 71 | 964.9 |
| 20260502120904 | 49 | 300 | 0.9 | 5.2 | 0.00 | 0.00 | 0.00 | 72 | 965.0 |
| 20260502120404 | 49 | 92 | 0.9 | 7.0 | 0.00 | 0.00 | 0.00 | 72 | 965.0 |
| 20260502115904 | 49 | 105 | 1.7 | 7.0 | 0.00 | 0.00 | 0.00 | 70 | 965.0 |
| 20260502115404 | 49 | 47 | 1.7 | 9.6 | 0.00 | 0.00 | 0.00 | 71 | 965.0 |
| 20260502114904 | 49 | 76 | 2.6 | 9.6 | 0.00 | 0.00 | 0.00 | 71 | 964.9 |
| 20260502114404 | 49 | 153 | 2.6 | 9.6 | 0.00 | 0.00 | 0.00 | 70 | 964.9 |
| 20260502113904 | 49 | 29 | 2.6 | 9.6 | 0.00 | 0.00 | 0.00 | 70 | 964.9 |
| 20260502113334 | 49 | 37 | 2.6 | 9.6 | 0.00 | 0.00 | 0.00 | 69 | 964.9 |
| 20260502112834 | 50 | 78 | 2.6 | 8.7 | 0.00 | 0.00 | 0.00 | 68 | 964.8 |
| 20260502112334 | 50 | 113 | 2.6 | 13.0 | 0.00 | 0.00 | 0.00 | 68 | 964.8 |
| 20260502111834 | 50 | 136 | 2.6 | 13.0 | 0.00 | 0.00 | 0.00 | 67 | 964.6 |
| 20260502111334 | 51 | 260 | 3.5 | 10.4 | 0.00 | 0.00 | 0.00 | 67 | 964.5 |
| 20260502110834 | 50 | 110 | 3.5 | 11.3 | 0.00 | 0.00 | 0.00 | 67 | 964.6 |
| 20260502110304 | 51 | 356 | 3.5 | 11.3 | 0.00 | 0.00 | 0.00 | 66 | 964.6 |
| 20260502105734 | 51 | 103 | 2.6 | 9.6 | 0.00 | 0.00 | 0.00 | 65 | 964.6 |
| 20260502105234 | 52 | 75 | 2.6 | 8.7 | 0.00 | 0.00 | 0.00 | 64 | 964.7 |
| 20260502104704 | 52 | 349 | 2.6 | 7.8 | 0.00 | 0.00 | 0.00 | 64 | 964.7 |
| 20260502104204 | 52 | 101 | 2.6 | 7.8 | 0.00 | 0.00 | 0.00 | 63 | 964.7 |
| 20260502103704 | 52 | 109 | 1.7 | 7.8 | 0.00 | 0.00 | 0.00 | 62 | 964.8 |
| 20260502103204 | 53 | 173 | 1.7 | 8.7 | 0.00 | 0.00 | 0.00 | 64 | 964.6 |
| 20260502102634 | 53 | 174 | 0.9 | 8.7 | 0.00 | 0.00 | 0.00 | 62 | 964.6 |
| 20260502102134 | 53 | 165 | 1.7 | 7.0 | 0.00 | 0.00 | 0.00 | 62 | 964.7 |
| 20260502101634 | 53 | 143 | 1.7 | 7.0 | 0.00 | 0.00 | 0.00 | 62 | 964.8 |
| 20260502101104 | 53 | 126 | 1.7 | 7.0 | 0.00 | 0.00 | 0.00 | 61 | 964.6 |
| 20260502100603 | 54 | 46 | 0.9 | 4.3 | 0.00 | 0.00 | 0.00 | 60 | 964.8 |
| 20260502091433 | 55 | 103 | 0.9 | 3.5 | 0.00 | 0.00 | 0.00 | 61 | 964.8 |
| 20260502090933 | 55 | 113 | 0.9 | 3.5 | 0.00 | 0.00 | 0.00 | 60 | 964.8 |
| 20260502090433 | 54 | 117 | 1.7 | 5.2 | 0.00 | 0.00 | 0.00 | 61 | 964.8 |
| 20260502071133 | 52 | 145 | 1.7 | 5.2 | 0.00 | 0.00 | 0.00 | 63 | 964.9 |
| 20260502070633 | 52 | 105 | 1.7 | 5.2 | 0.00 | 0.00 | 0.00 | 62 | 964.8 |